Location: Demmingen
(48.6757°N, 10.4375°E)
Time: 09:54:02
(UTC+00:00)

CZ-2C R/B - Pass Details

Date: 09 August 2024
Orbit: 703 x 903 km, 98.2° (Epoch: 16 September)

Event Time Altitude Azimuth Distance (km) Brightness Sun altitude
Rises 23:36:36 0° 35° (NE) 3,190 7.1 -25.8°
Reaches altitude 10° 23:41:29 10° 78° (ENE) 2,313 5.7 -25.7°
Maximum altitude 23:42:09 10° 85° (E) 2,304 5.6 -25.7°
Drops below altitude 10° 23:42:49 10° 93° (E) 2,327 5.5 -25.7°
Enters shadow 23:43:48 - 103° (ESE) 2,417 5.5 -25.7°
